,,,PA_Meas_PMT16A,,PR_Meas_QMR101_102,,RH_Meas_QMH101,,SR_Meas_QMS101,,TA_Meas_QMH101,,GenWind,,GenWind,
date,time,status,PA,status,PR,status,RH,status,SR,status,TA,status,DirAvg,status,SpdAvg,
2009-01-18, 00:00:05,VALID,1005.77,VALID,0,VALID,93.6521,VALID,0,VALID,24.7937,VALID,31,VALID,0,
2009-01-18, 00:01:05,VALID,1005.78,VALID,0,VALID,93.6445,VALID,0,VALID,24.7937,VALID,31,VALID,0,
2009-01-18, 00:02:05,VALID,1005.75,VALID,0,VALID,93.6369,VALID,0,VALID,24.8132,VALID,31,VALID,0.26875,
2009-01-18, 00:03:05,VALID,1005.77,VALID,0,VALID,93.5835,VALID,0,VALID,24.8132,VALID,31,VALID,0,
2009-01-18, 00:04:05,VALID,1005.75,VALID,0,VALID,93.5148,VALID,0,VALID,24.7937,VALID,31,VALID,0.244922,
2009-01-18, 00:05:05,VALID,1005.74,VALID,0,VALID,93.4767,VALID,0,VALID,24.7743,VALID,31,VALID,0,
2009-01-18, 00:06:05,VALID,1005.72,VALID,0,VALID,93.4843,VALID,0,VALID,24.7724,VALID,31,VALID,0,
2009-01-18, 00:07:05,VALID,1005.71,VALID,0,VALID,93.4233,VALID,0,VALID,24.7956,VALID,31,VALID,0,
2009-01-18, 00:08:05,VALID,1005.69,VALID,0,VALID,93.408,VALID,0,VALID,24.7937,VALID,30,VALID,0.619922,
2009-01-18, 00:09:05,VALID,1005.67,VALID,0,VALID,92.9961,VALID,0,VALID,24.7335,VALID,34,VALID,1.00742,
2009-01-18, 00:10:05,VALID,1005.65,VALID,0,VALID,92.9884,VALID,0,VALID,24.7548,VALID,20,VALID,0.449219,
2009-01-18, 00:11:05,VALID,1005.65,VALID,0,VALID,92.7824,VALID,0,VALID,24.7937,VALID,24,VALID,0.475,
2009-01-18, 00:12:05,VALID,1005.64,VALID,0,VALID,92.8587,VALID,0,VALID,24.8327,VALID,24,VALID,0.249609,
2009-01-18, 00:13:05,VALID,1005.64,VALID,0,VALID,92.6909,VALID,0,VALID,24.8522,VALID,14,VALID,0.444922,
2009-01-18, 00:14:05,VALID,1005.62,VALID,0,VALID,92.6604,VALID,0,VALID,24.8716,VALID,2,VALID,0.187891,
2009-01-18, 00:15:05,VALID,1005.63,VALID,0,VALID,92.5307,VALID,0,VALID,24.8716,VALID,2,VALID,0.351953,
2009-01-18, 00:16:05,VALID,1005.62,VALID,0,VALID,92.4925,VALID,0,VALID,24.8892,VALID,1,VALID,0.473437,
2009-01-18, 00:17:05,VALID,1005.58,VALID,0,VALID,92.6146,VALID,0,VALID,24.93,VALID,1,VALID,0.376953,
2009-01-18, 00:18:05,VALID,1005.55,VALID,0,VALID,92.668,VALID,0,VALID,24.93,VALID,2,VALID,0.327344,
2009-01-18, 00:19:05,VALID,1005.56,VALID,0,VALID,92.5307,VALID,0,VALID,24.9106,VALID,2,VALID,0.300781,
2009-01-18, 00:20:05,VALID,1005.52,VALID,0,VALID,92.5383,VALID,0,VALID,24.9106,VALID,1,VALID,0,
2009-01-18, 00:21:05,VALID,1005.5,VALID,0,VALID,92.3247,VALID,0,VALID,24.8697,VALID,2,VALID,0,
2009-01-18, 00:22:05,VALID,1005.49,VALID,0,VALID,92.2942,VALID,0,VALID,24.8911,VALID,1,VALID,0,
2009-01-18, 00:23:05,VALID,1005.49,VALID,0,VALID,92.0196,VALID,0,VALID,24.9125,VALID,2,VALID,0,
2009-01-18, 00:24:05,VALID,1005.47,VALID,0,VALID,91.8441,VALID,0,VALID,24.8716,VALID,2,VALID,0,
2009-01-18, 00:25:05,VALID,1005.48,VALID,0,VALID,91.7602,VALID,0,VALID,24.8911,VALID,2,VALID,0,
2009-01-18, 00:26:05,VALID,1005.48,VALID,0,VALID,91.5466,VALID,0,VALID,24.9106,VALID,2,VALID,0,
2009-01-18, 00:27:05,VALID,1005.47,VALID,0,VALID,91.1728,VALID,0,VALID,24.9106,VALID,1,VALID,0,
2009-01-18, 00:28:05,VALID,1005.46,VALID,0,VALID,91.0202,VALID,0,VALID,24.9495,VALID,1,VALID,0,
2009-01-18, 00:29:05,VALID,1005.45,VALID,0,VALID,90.9439,VALID,0,VALID,24.9495,VALID,2,VALID,0,
2009-01-18, 00:30:05,VALID,1005.46,VALID,0,VALID,90.8066,VALID,0,VALID,24.969,VALID,2,VALID,0,
2009-01-18, 00:31:05,VALID,1005.44,VALID,0,VALID,90.5167,VALID,0,VALID,24.9866,VALID,1,VALID,0,
2009-01-18, 00:32:05,VALID,1005.42,VALID,0,VALID,90.0894,VALID,0.100563,VALID,24.9885,VALID,2,VALID,0,
2009-01-18, 00:33:05,VALID,1005.41,VALID,0,VALID,89.6927,VALID,0,VALID,25.0663,VALID,2,VALID,0,
2009-01-18, 00:34:05,VALID,1005.4,VALID,0,VALID,89.708,VALID,0,VALID,25.1053,VALID,1,VALID,0.546484,
2009-01-18, 00:35:05,VALID,1005.37,VALID,0,VALID,89.7156,VALID,0.100563,VALID,25.1637,VALID,360,VALID,0.527734,
2009-01-18, 00:36:05,VALID,1005.35,VALID,0,VALID,89.9903,VALID,0,VALID,25.1832,VALID,360,VALID,0.416406,
2009-01-18, 00:37:05,VALID,1005.28,VALID,0,VALID,89.8377,VALID,0,VALID,25.1442,VALID,360,VALID,0.453125,
2009-01-18, 00:38:05,VALID,1005.29,VALID,0,VALID,90.1352,VALID,0,VALID,25.1442,VALID,360,VALID,0.201172,
2009-01-18, 00:39:05,VALID,1005.27,VALID,0,VALID,90.1963,VALID,0,VALID,25.0839,VALID,360,VALID,0.169922,
2009-01-18, 00:40:05,VALID,1005.28,VALID,0,VALID,90.3336,VALID,0,VALID,25.0858,VALID,360,VALID,0,
2009-01-18, 00:41:05,VALID,1005.26,VALID,0,VALID,90.1429,VALID,0,VALID,25.0469,VALID,360,VALID,0,
2009-01-18, 00:42:05,VALID,1005.28,VALID,0,VALID,90.0055,VALID,0,VALID,25.006,VALID,360,VALID,0,
2009-01-18, 00:43:05,VALID,1005.28,VALID,0,VALID,89.975,VALID,0,VALID,25.006,VALID,360,VALID,0,
2009-01-18, 00:44:05,VALID,1005.27,VALID,0,VALID,89.9826,VALID,0,VALID,25.006,VALID,360,VALID,0.143359,
2009-01-18, 00:45:05,VALID,1005.26,VALID,0,VALID,89.6851,VALID,0,VALID,25.0274,VALID,360,VALID,0.227344,
2009-01-18, 00:46:05,VALID,1005.27,VALID,0,VALID,89.708,VALID,0,VALID,25.0274,VALID,360,VALID,0,
2009-01-18, 00:47:05,VALID,1005.26,VALID,0,VALID,89.6241,VALID,0.100563,VALID,25.0663,VALID,360,VALID,0,
2009-01-18, 00:48:05,VALID,1005.27,VALID,0,VALID,89.6699,VALID,0,VALID,25.0663,VALID,360,VALID,0,
2009-01-18, 00:49:05,VALID,1005.28,VALID,0,VALID,89.4486,VALID,0,VALID,25.0469,VALID,360,VALID,0.102344,
2009-01-18, 00:50:05,VALID,1005.27,VALID,0,VALID,89.5631,VALID,0,VALID,25.0663,VALID,360,VALID,0.0539063,
2009-01-18, 00:51:05,VALID,1005.27,VALID,0,VALID,89.3571,VALID,0,VALID,25.0858,VALID,360,VALID,0.130469,
2009-01-18, 00:52:05,VALID,1005.22,VALID,0,VALID,89.2045,VALID,0,VALID,25.1053,VALID,360,VALID,0.36875,
2009-01-18, 00:53:05,VALID,1005.22,VALID,0,VALID,89.1435,VALID,0,VALID,25.1442,VALID,360,VALID,0.193359,
2009-01-18, 00:54:05,VALID,1005.2,VALID,0,VALID,89.0061,VALID,0,VALID,25.1637,VALID,360,VALID,0.354297,
2009-01-18, 00:55:05,VALID,1005.21,VALID,0,VALID,88.8002,VALID,0,VALID,25.1618,VALID,355,VALID,0.541797,
2009-01-18, 00:56:05,VALID,1005.21,VALID,0,VALID,88.6323,VALID,0,VALID,25.2221,VALID,355,VALID,0.278906,
2009-01-18, 00:57:05,VALID,1005.19,VALID,0,VALID,88.4874,VALID,0,VALID,25.2202,VALID,355,VALID,0.084375,
2009-01-18, 00:58:05,VALID,1005.17,VALID,0,VALID,88.3577,VALID,0,VALID,25.2611,VALID,348,VALID,0.184766,
2009-01-18, 00:59:05,VALID,1005.13,VALID,0,VALID,88.022,VALID,0,VALID,25.2806,VALID,348,VALID,0.284766,
2009-01-18, 01:00:05,VALID,1005.16,VALID,0,VALID,87.8618,VALID,0,VALID,25.3,VALID,348,VALID,0.20625,
2009-01-18, 01:01:05,VALID,1005.16,VALID,0,VALID,88.2051,VALID,0,VALID,25.3195,VALID,348,VALID,0.110937,
2009-01-18, 01:02:05,VALID,1005.13,VALID,0,VALID,88.1059,VALID,0,VALID,25.3195,VALID,349,VALID,0.288281,
2009-01-18, 01:03:05,VALID,1005.09,VALID,0,VALID,88.1136,VALID,0,VALID,25.339,VALID,348,VALID,0.164063,
2009-01-18, 01:04:05,VALID,1005.06,VALID,0,VALID,88.3958,VALID,0,VALID,25.339,VALID,348,VALID,0,
2009-01-18, 01:05:05,VALID,1005.1,VALID,0,VALID,88.2509,VALID,0,VALID,25.339,VALID,348,VALID,0.00429688,
2009-01-18, 01:06:05,VALID,1005.08,VALID,0,VALID,88.2967,VALID,0,VALID,25.3,VALID,353,VALID,0.475391,
2009-01-18, 01:07:05,VALID,1005.03,VALID,0,VALID,87.7016,VALID,0,VALID,25.2806,VALID,17,VALID,0.887891,
2009-01-18, 01:08:05,VALID,1004.99,VALID,0,VALID,87.9305,VALID,0,VALID,25.3195,VALID,18,VALID,0.205469,
2009-01-18, 01:09:05,VALID,1005,VALID,0,VALID,87.7474,VALID,0,VALID,25.3195,VALID,5,VALID,0.257813,
2009-01-18, 01:10:05,VALID,1004.96,VALID,0,VALID,87.7932,VALID,0,VALID,25.339,VALID,5,VALID,0.009375,
2009-01-18, 01:11:05,VALID,1004.96,VALID,0,VALID,86.6183,VALID,0,VALID,25.3584,VALID,32,VALID,1.11914,
2009-01-18, 01:12:05,VALID,1004.93,VALID,0,VALID,86.5725,VALID,0,VALID,25.4363,VALID,4,VALID,0.521484,
2009-01-18, 01:13:05,VALID,1004.93,VALID,0,VALID,86.3437,VALID,0,VALID,25.4967,VALID,4,VALID,0.383984,
2009-01-18, 01:14:05,VALID,1004.89,VALID,0,VALID,85.9927,VALID,0,VALID,25.4948,VALID,23,VALID,0.612891,
2009-01-18, 01:15:05,VALID,1004.88,VALID,0,VALID,86.2445,VALID,0,VALID,25.5532,VALID,28,VALID,0.23125,
2009-01-18, 01:16:05,VALID,1004.87,VALID,0,VALID,85.947,VALID,0,VALID,25.5532,VALID,28,VALID,0.586328,
2009-01-18, 01:17:05,VALID,1004.86,VALID,0,VALID,85.8936,VALID,0,VALID,25.5727,VALID,30,VALID,0.334766,
2009-01-18, 01:18:05,VALID,1004.88,VALID,0,VALID,85.6952,VALID,0,VALID,25.5921,VALID,8,VALID,0.774609,
2009-01-18, 01:19:05,VALID,1004.9,VALID,0,VALID,85.2222,VALID,0,VALID,25.6506,VALID,27,VALID,1.18125,
2009-01-18, 01:20:05,VALID,1004.88,VALID,0,VALID,85.3443,VALID,0,VALID,25.7674,VALID,26,VALID,0.723047,
2009-01-18, 01:21:05,VALID,1004.85,VALID,0,VALID,85.3748,VALID,0,VALID,25.7674,VALID,31,VALID,1.00039,
2009-01-18, 01:22:05,VALID,1004.85,VALID,0,VALID,85.7257,VALID,0,VALID,25.7869,VALID,46,VALID,0.982813,
2009-01-18, 01:23:05,VALID,1004.83,VALID,0,VALID,86.1529,VALID,0,VALID,25.7869,VALID,30,VALID,1.00156,
2009-01-18, 01:24:05,VALID,1004.82,VALID,0,VALID,86.6641,VALID,0,VALID,25.8259,VALID,31,VALID,1.21641,
2009-01-18, 01:25:05,VALID,1004.79,VALID,0,VALID,86.8929,VALID,0,VALID,25.9057,VALID,25,VALID,0.856641,
2009-01-18, 01:26:05,VALID,1004.79,VALID,0,VALID,86.9006,VALID,0,VALID,25.9038,VALID,21,VALID,0.954297,
2009-01-18, 01:27:05,VALID,1004.78,VALID,0,VALID,86.8929,VALID,0,VALID,25.9427,VALID,5,VALID,0.908594,
2009-01-18, 01:28:05,VALID,1004.77,VALID,0,VALID,87.0074,VALID,0,VALID,25.9232,VALID,355,VALID,0.509766,
2009-01-18, 01:29:05,VALID,1004.8,VALID,0,VALID,86.9311,VALID,0,VALID,25.9427,VALID,18,VALID,0.774609,
2009-01-18, 01:30:05,VALID,1004.82,VALID,0,VALID,87.076,VALID,0,VALID,25.9622,VALID,24,VALID,1.5875,
2009-01-18, 01:31:05,VALID,1004.79,VALID,0,VALID,87.0455,VALID,0,VALID,26.0206,VALID,25,VALID,1.27695,
2009-01-18, 01:32:05,VALID,1004.77,VALID,0,VALID,86.7861,VALID,0,VALID,26.0596,VALID,33,VALID,1.35664,
2009-01-18, 01:33:05,VALID,1004.76,VALID,0,VALID,86.8014,VALID,0,VALID,26.1005,VALID,5,VALID,0.846875,
2009-01-18, 01:34:05,VALID,1004.76,VALID,0,VALID,86.954,VALID,0,VALID,26.0791,VALID,33,VALID,0.584375,
2009-01-18, 01:35:05,VALID,1004.74,VALID,0,VALID,86.8395,VALID,0,VALID,26.1005,VALID,24,VALID,1.25,
2009-01-18, 01:36:05,VALID,1004.74,VALID,0,VALID,86.8929,VALID,0,VALID,26.0576,VALID,358,VALID,0.801172,
2009-01-18, 01:37:05,VALID,1004.77,VALID,0,VALID,87.0455,VALID,0,VALID,26.0791,VALID,30,VALID,0.629687,
2009-01-18, 01:38:05,VALID,1004.75,VALID,0,VALID,86.6336,VALID,0,VALID,26.0381,VALID,11,VALID,0.760547,
2009-01-18, 01:39:05,VALID,1004.76,VALID,0,VALID,86.0919,VALID,0,VALID,26.0401,VALID,36,VALID,1.26563,
2009-01-18, 01:40:05,VALID,1004.77,VALID,0,VALID,86.3971,VALID,0,VALID,26.12,VALID,8,VALID,0.464844,
2009-01-18, 01:41:05,VALID,1004.77,VALID,0,VALID,86.3284,VALID,0,VALID,26.0985,VALID,21,VALID,0.676562,
2009-01-18, 01:42:05,VALID,1004.79,VALID,0,VALID,85.7562,VALID,0,VALID,26.0596,VALID,15,VALID,1.20195,
2009-01-18, 01:43:05,VALID,1004.77,VALID,0,VALID,85.6342,VALID,0,VALID,26.081,VALID,24,VALID,0.967969,
2009-01-18, 01:44:05,VALID,1004.78,VALID,0,VALID,85.7562,VALID,0,VALID,26.0596,VALID,359,VALID,0.799609,
2009-01-18, 01:45:05,VALID,1004.77,VALID,0,VALID,85.329,VALID,0,VALID,26.0791,VALID,21,VALID,0.839844,
2009-01-18, 01:46:05,VALID,1004.77,VALID,0,VALID,85.2451,VALID,0,VALID,26.0576,VALID,21,VALID,0.924219,
2009-01-18, 01:47:05,VALID,1004.76,VALID,0,VALID,85.2833,VALID,0,VALID,26.0596,VALID,14,VALID,0.982031,
2009-01-18, 01:48:05,VALID,1004.72,VALID,0,VALID,85.2451,VALID,0,VALID,26.0985,VALID,32,VALID,1.02813,
2009-01-18, 01:49:05,VALID,1004.71,VALID,0,VALID,85.4969,VALID,0,VALID,26.0791,VALID,12,VALID,0.634375,
2009-01-18, 01:50:05,VALID,1004.65,VALID,0,VALID,85.2985,VALID,0,VALID,26.0791,VALID,53,VALID,0.587109,
2009-01-18, 01:51:05,VALID,1004.65,VALID,0,VALID,85.5198,VALID,0,VALID,26.0791,VALID,16,VALID,0.854297,
2009-01-18, 01:52:05,VALID,1004.63,VALID,0,VALID,85.329,VALID,0,VALID,26.1005,VALID,19,VALID,1.1082,
2009-01-18, 01:53:05,VALID,1004.59,VALID,0,VALID,85.3901,VALID,0,VALID,26.12,VALID,28,VALID,0.776563,
2009-01-18, 01:54:05,VALID,1004.59,VALID,0,VALID,85.2909,VALID,0,VALID,26.0985,VALID,337,VALID,1.08359,
2009-01-18, 01:55:05,VALID,1004.57,VALID,0,VALID,85.3595,VALID,0,VALID,26.118,VALID,355,VALID,0.959766,
2009-01-18, 01:56:05,VALID,1004.58,VALID,0,VALID,85.123,VALID,0,VALID,26.159,VALID,12,VALID,0.689844,
2009-01-18, 01:57:05,VALID,1004.56,VALID,0,VALID,84.8484,VALID,0,VALID,26.1979,VALID,26,VALID,0.749609,
2009-01-18, 01:58:05,VALID,1004.58,VALID,0,VALID,84.4288,VALID,0,VALID,26.1959,VALID,13,VALID,0.964844,
2009-01-18, 01:59:05,VALID,1004.57,VALID,0,VALID,84.856,VALID,0,VALID,26.1959,VALID,19,VALID,0.642969,
2009-01-18, 02:00:05,VALID,1004.55,VALID,0,VALID,83.9711,VALID,0,VALID,26.2544,VALID,24,VALID,2.25078,
2009-01-18, 02:01:05,VALID,1004.52,VALID,0,VALID,83.7041,VALID,0,VALID,26.3128,VALID,1,VALID,1.15508,
2009-01-18, 02:02:05,VALID,1004.49,VALID,0,VALID,83.8185,VALID,0,VALID,26.3323,VALID,7,VALID,0.953906,
2009-01-18, 02:03:05,VALID,1004.5,VALID,0,VALID,83.9711,VALID,0,VALID,26.3148,VALID,9,VALID,0.924219,
2009-01-18, 02:04:05,VALID,1004.46,VALID,0,VALID,83.727,VALID,0,VALID,26.2739,VALID,33,VALID,1.57227,
2009-01-18, 02:05:05,VALID,1004.46,VALID,0,VALID,83.7041,VALID,0,VALID,26.2544,VALID,15,VALID,1.46875,
2009-01-18, 02:06:05,VALID,1004.46,VALID,0,VALID,83.2845,VALID,0,VALID,26.2739,VALID,25,VALID,1.68945,
2009-01-18, 02:07:05,VALID,1004.42,VALID,0,VALID,83.4294,VALID,0,VALID,26.3128,VALID,360,VALID,1.02305,
2009-01-18, 02:08:05,VALID,1004.38,VALID,0,VALID,82.7734,VALID,0,VALID,26.3323,VALID,20,VALID,1.61133,
2009-01-18, 02:09:05,VALID,1004.34,VALID,0,VALID,82.987,VALID,0,VALID,26.3927,VALID,33,VALID,0.846484,
2009-01-18, 02:10:04,VALID,1004.34,VALID,0,VALID,83.1701,VALID,0,VALID,26.3733,VALID,353,VALID,0.507031,
2009-01-18, 02:11:04,VALID,1004.28,VALID,0,VALID,82.7581,VALID,0,VALID,26.3343,VALID,16,VALID,1.53633,
2009-01-18, 02:12:04,VALID,1004.28,VALID,0,VALID,82.8649,VALID,0,VALID,26.3128,VALID,25,VALID,1.25039,
2009-01-18, 02:13:04,VALID,1004.24,VALID,0,VALID,82.5903,VALID,0,VALID,26.2933,VALID,348,VALID,1.07031,
2009-01-18, 02:14:04,VALID,1004.25,VALID,0,VALID,82.1936,VALID,0,VALID,26.2953,VALID,21,VALID,1.53203,
2009-01-18, 02:15:04,VALID,1004.21,VALID,0,VALID,82.514,VALID,0,VALID,26.2739,VALID,7,VALID,0.719141,
2009-01-18, 02:16:04,VALID,1004.2,VALID,0,VALID,82.636,VALID,0,VALID,26.2564,VALID,3,VALID,0.479688,
2009-01-18, 02:17:04,VALID,1004.22,VALID,0,VALID,82.4987,VALID,0,VALID,26.1959,VALID,359,VALID,0.967188,
2009-01-18, 02:18:04,VALID,1004.21,VALID,0,VALID,82.6665,VALID,0,VALID,26.2154,VALID,9,VALID,1.03477,
2009-01-18, 02:19:04,VALID,1004.18,VALID,0,VALID,82.369,VALID,0,VALID,26.1959,VALID,31,VALID,1.24414,
2009-01-18, 02:20:04,VALID,1004.17,VALID,0,VALID,82.6589,VALID,0,VALID,26.2154,VALID,22,VALID,1.06914,
2009-01-18, 02:21:04,VALID,1004.16,VALID,0,VALID,83.1319,VALID,0,VALID,26.2564,VALID,26,VALID,0.956641,
2009-01-18, 02:22:04,VALID,1004.15,VALID,0,VALID,83.1319,VALID,0,VALID,26.2544,VALID,20,VALID,1.05039,
2009-01-18, 02:23:04,VALID,1004.14,VALID,0,VALID,83.2158,VALID,0,VALID,26.2739,VALID,354,VALID,0.696484,
2009-01-18, 02:24:04,VALID,1004.15,VALID,0,VALID,83.4142,VALID,0,VALID,26.2544,VALID,8,VALID,1.40313,
2009-01-18, 02:25:04,VALID,1004.13,VALID,0,VALID,83.849,VALID,0,VALID,26.2953,VALID,7,VALID,0.723047,
2009-01-18, 02:26:04,VALID,1004.13,VALID,0,VALID,84.3602,VALID,0,VALID,26.2349,VALID,16,VALID,0.869922,
2009-01-18, 02:27:04,VALID,1004.1,VALID,0,VALID,84.5127,VALID,0,VALID,26.2369,VALID,21,VALID,0.516016,
2009-01-18, 02:28:04,VALID,1004.11,VALID,0,VALID,84.9781,VALID,0,VALID,26.2369,VALID,21,VALID,1.06133,
2009-01-18, 02:29:04,VALID,1004.09,VALID,0,VALID,85.0162,VALID,0,VALID,26.2369,VALID,33,VALID,0.841797,
2009-01-18, 02:30:04,VALID,1004.1,VALID,0,VALID,85.0773,VALID,0,VALID,26.2389,VALID,31,VALID,0.589844,
2009-01-18, 02:31:04,VALID,1004.1,VALID,0,VALID,85.2527,VALID,0,VALID,26.1979,VALID,31,VALID,0.566406,
2009-01-18, 02:32:04,VALID,1004.12,VALID,0,VALID,85.4663,VALID,0,VALID,26.159,VALID,32,VALID,0.812891,
2009-01-18, 02:33:04,VALID,1004.09,VALID,0,VALID,85.1765,VALID,0,VALID,26.12,VALID,21,VALID,1.04766,
2009-01-18, 02:34:04,VALID,1004.11,VALID,0,VALID,85.2756,VALID,0,VALID,26.118,VALID,28,VALID,0.822656,
2009-01-18, 02:35:04,VALID,1004.07,VALID,0,VALID,85.268,VALID,0,VALID,26.1005,VALID,26,VALID,0.748438,
2009-01-18, 02:36:04,VALID,1004.04,VALID,0,VALID,85.0696,VALID,0,VALID,26.081,VALID,20,VALID,1.11055,
2009-01-18, 02:37:04,VALID,1004,VALID,0,VALID,84.9323,VALID,0,VALID,26.081,VALID,28,VALID,0.986328,
2009-01-18, 02:38:04,VALID,1003.99,VALID,0,VALID,84.9781,VALID,0,VALID,26.12,VALID,24,VALID,0.534375,
2009-01-18, 02:39:04,VALID,1003.97,VALID,0,VALID,85.2756,VALID,0,VALID,26.12,VALID,24,VALID,0.358984,
2009-01-18, 02:40:04,VALID,1003.92,VALID,0,VALID,84.6501,VALID,0,VALID,26.0791,VALID,33,VALID,1.00508,
2009-01-18, 02:41:04,VALID,1003.89,VALID,0,VALID,85.2604,VALID,0,VALID,26.0985,VALID,355,VALID,0.675781,
2009-01-18, 02:42:04,VALID,1003.87,VALID,0,VALID,85.4816,VALID,0,VALID,26.1005,VALID,17,VALID,0.800781,
2009-01-18, 02:43:04,VALID,1003.84,VALID,0,VALID,85.7486,VALID,0,VALID,26.1005,VALID,28,VALID,1.19844,
2009-01-18, 02:44:04,VALID,1003.84,VALID,0,VALID,85.9546,VALID,0,VALID,26.0791,VALID,351,VALID,0.597656,
2009-01-18, 02:45:04,VALID,1003.82,VALID,0,VALID,86.2903,VALID,0,VALID,26.12,VALID,360,VALID,1.14297,
2009-01-18, 02:46:04,VALID,1003.79,VALID,0,VALID,86.3513,VALID,0,VALID,26.1375,VALID,11,VALID,0.980859,
2009-01-18, 02:47:04,VALID,1003.79,VALID,0,VALID,86.4428,VALID,0,VALID,26.2174,VALID,2,VALID,0.948047,
2009-01-18, 02:48:04,VALID,1003.77,VALID,0,VALID,86.4657,VALID,0,VALID,26.2154,VALID,19,VALID,1.02031,
2009-01-18, 02:49:04,VALID,1003.74,VALID,0,VALID,86.687,VALID,0,VALID,26.2174,VALID,355,VALID,1.10312,
2009-01-18, 02:50:04,VALID,1003.73,VALID,0,VALID,86.7938,VALID,0,VALID,26.2369,VALID,10,VALID,0.967188,
2009-01-18, 02:51:04,VALID,1003.7,VALID,0,VALID,86.6412,VALID,0,VALID,26.2369,VALID,30,VALID,1.3543,
2009-01-18, 02:52:04,VALID,1003.7,VALID,0,VALID,86.7709,VALID,0,VALID,26.2154,VALID,7,VALID,0.680469,
2009-01-18, 02:53:04,VALID,1003.67,VALID,0,VALID,86.8243,VALID,0,VALID,26.2154,VALID,16,VALID,0.532422,
2009-01-18, 02:54:04,VALID,1003.66,VALID,0,VALID,86.7709,VALID,0,VALID,26.1959,VALID,19,VALID,0.796094,
2009-01-18, 02:55:04,VALID,1003.63,VALID,0,VALID,86.8167,VALID,0,VALID,26.1959,VALID,27,VALID,0.858594,
2009-01-18, 02:56:04,VALID,1003.63,VALID,0,VALID,86.8243,VALID,0,VALID,26.1745,VALID,14,VALID,0.701563,
2009-01-18, 02:57:04,VALID,1003.65,VALID,0,VALID,86.9158,VALID,0,VALID,26.157,VALID,27,VALID,0.715234,
2009-01-18, 02:58:04,VALID,1003.65,VALID,0,VALID,86.9769,VALID,0.100563,VALID,26.0771,VALID,21,VALID,0.853906,
2009-01-18, 02:59:04,VALID,1003.65,VALID,0,VALID,87.0455,VALID,0.100563,VALID,26.0966,VALID,25,VALID,0.918359,
2009-01-18, 03:00:04,VALID,1003.63,VALID,0,VALID,87.16,VALID,0,VALID,26.0791,VALID,357,VALID,0.517969,
2009-01-18, 03:01:04,VALID,1003.62,VALID,0,VALID,87.1447,VALID,0,VALID,26.0596,VALID,352,VALID,1.19687,
2009-01-18, 03:02:04,VALID,1003.63,VALID,0,VALID,87.282,VALID,0,VALID,26.0596,VALID,20,VALID,0.594141,
2009-01-18, 03:03:04,VALID,1003.61,VALID,0,VALID,87.4422,VALID,0,VALID,26.0401,VALID,14,VALID,0.747266,
2009-01-18, 03:04:04,VALID,1003.61,VALID,0,VALID,87.4651,VALID,0,VALID,26.0012,VALID,1,VALID,0.532031,
2009-01-18, 03:05:04,VALID,1003.59,VALID,0,VALID,87.5414,VALID,0,VALID,26.0012,VALID,7,VALID,0.560156,
2009-01-18, 03:06:04,VALID,1003.61,VALID,0,VALID,87.7245,VALID,0,VALID,25.9602,VALID,4,VALID,0.548828,
2009-01-18, 03:07:04,VALID,1003.61,VALID,0,VALID,87.816,VALID,0,VALID,25.9817,VALID,21,VALID,1.16328,
2009-01-18, 03:08:04,VALID,1003.63,VALID,0,VALID,87.7321,VALID,0,VALID,26.0206,VALID,354,VALID,0.919922,
2009-01-18, 03:09:04,VALID,1003.62,VALID,0,VALID,87.5872,VALID,0.100563,VALID,26.0401,VALID,359,VALID,1.44023,
2009-01-18, 03:10:04,VALID,1003.64,VALID,0,VALID,87.4346,VALID,0,VALID,26.081,VALID,359,VALID,0.711328,
2009-01-18, 03:11:04,VALID,1003.63,VALID,0,VALID,87.3354,VALID,0,VALID,26.1005,VALID,6,VALID,0.997656,
2009-01-18, 03:12:04,VALID,1003.68,VALID,0,VALID,87.3278,VALID,0,VALID,26.118,VALID,358,VALID,0.580859,
2009-01-18, 03:13:04,VALID,1003.67,VALID,0,VALID,87.3125,VALID,0,VALID,26.0985,VALID,6,VALID,0.6,
2009-01-18, 03:14:04,VALID,1003.71,VALID,0,VALID,87.3354,VALID,0,VALID,26.0791,VALID,356,VALID,0.327734,
2009-01-18, 03:15:04,VALID,1003.72,VALID,0,VALID,87.3812,VALID,0,VALID,26.1005,VALID,356,VALID,0.545313,
2009-01-18, 03:16:04,VALID,1003.73,VALID,0,VALID,87.4346,VALID,0,VALID,26.0596,VALID,359,VALID,0.8125,
2009-01-18, 03:17:04,VALID,1003.73,VALID,0,VALID,87.4346,VALID,0,VALID,26.081,VALID,355,VALID,0.4875,
2009-01-18, 03:18:04,VALID,1003.74,VALID,0,VALID,87.5261,VALID,0,VALID,26.0596,VALID,349,VALID,0.743359,
2009-01-18, 03:19:04,VALID,1003.72,VALID,0,VALID,87.3507,VALID,0,VALID,26.0596,VALID,347,VALID,0.746875,
2009-01-18, 03:20:04,VALID,1003.68,VALID,0,VALID,87.4041,VALID,0,VALID,26.081,VALID,351,VALID,0.744141,
2009-01-18, 03:21:04,VALID,1003.67,VALID,0,VALID,87.282,VALID,0,VALID,26.0791,VALID,345,VALID,0.524609,
2009-01-18, 03:22:04,VALID,1003.65,VALID,0,VALID,87.2515,VALID,0,VALID,26.0791,VALID,358,VALID,0.910937,
2009-01-18, 03:23:04,VALID,1003.64,VALID,0,VALID,87.282,VALID,0,VALID,26.12,VALID,3,VALID,0.632031,
2009-01-18, 03:24:04,VALID,1003.65,VALID,0,VALID,87.1523,VALID,0,VALID,26.1395,VALID,10,VALID,0.473047,
2009-01-18, 03:25:04,VALID,1003.63,VALID,0,VALID,87.1218,VALID,0,VALID,26.1395,VALID,358,VALID,0.188672,
2009-01-18, 03:26:04,VALID,1003.64,VALID,0,VALID,87.1218,VALID,0,VALID,26.12,VALID,17,VALID,1.12188,
2009-01-18, 03:27:04,VALID,1003.65,VALID,0,VALID,87.1142,VALID,0,VALID,26.0985,VALID,355,VALID,0.455859,
2009-01-18, 03:28:04,VALID,1003.64,VALID,0,VALID,87.1523,VALID,0,VALID,26.1005,VALID,34,VALID,0.421484,
2009-01-18, 03:29:04,VALID,1003.63,VALID,0,VALID,87.2286,VALID,0,VALID,26.0791,VALID,22,VALID,0.537109,
2009-01-18, 03:30:04,VALID,1003.6,VALID,0,VALID,87.2515,VALID,0,VALID,26.081,VALID,351,VALID,0.603516,
2009-01-18, 03:31:04,VALID,1003.6,VALID,0,VALID,86.9998,VALID,0,VALID,26.1005,VALID,2,VALID,0.553906,
2009-01-18, 03:32:04,VALID,1003.59,VALID,0,VALID,86.8701,VALID,0,VALID,26.1005,VALID,16,VALID,0.657031,
2009-01-18, 03:33:04,VALID,1003.55,VALID,0,VALID,86.9387,VALID,0,VALID,26.0791,VALID,26,VALID,0.579687,
2009-01-18, 03:34:04,VALID,1003.62,VALID,0,VALID,86.8929,VALID,0,VALID,26.0791,VALID,353,VALID,0.885938,
2009-01-18, 03:35:04,VALID,1003.6,VALID,0,VALID,86.6793,VALID,0,VALID,26.0985,VALID,357,VALID,0.848437,
2009-01-18, 03:36:04,VALID,1003.58,VALID,0,VALID,86.6641,VALID,0,VALID,26.1375,VALID,12,VALID,0.463672,
2009-01-18, 03:37:04,VALID,1003.58,VALID,0,VALID,86.5039,VALID,0,VALID,26.1375,VALID,20,VALID,1.1957,
2009-01-18, 03:38:04,VALID,1003.56,VALID,0,VALID,86.1072,VALID,0,VALID,26.1765,VALID,8,VALID,0.867188,
2009-01-18, 03:39:04,VALID,1003.56,VALID,0,VALID,85.9393,VALID,0,VALID,26.2174,VALID,347,VALID,0.538672,
2009-01-18, 03:40:04,VALID,1003.57,VALID,0,VALID,86.0385,VALID,0,VALID,26.2174,VALID,343,VALID,0.565234,
2009-01-18, 03:41:04,VALID,1003.59,VALID,0,VALID,86.0309,VALID,0,VALID,26.2174,VALID,356,VALID,0.655859,
2009-01-18, 03:42:04,VALID,1003.57,VALID,0,VALID,85.9699,VALID,0,VALID,26.1959,VALID,3,VALID,0.515234,
2009-01-18, 03:43:04,VALID,1003.58,VALID,0,VALID,86.008,VALID,0,VALID,26.1765,VALID,352,VALID,0.724219,
2009-01-18, 03:44:04,VALID,1003.57,VALID,0,VALID,86.0919,VALID,0,VALID,26.1765,VALID,347,VALID,0.803906,
2009-01-18, 03:45:04,VALID,1003.57,VALID,0,VALID,86.1301,VALID,0,VALID,26.1765,VALID,358,VALID,0.738281,
2009-01-18, 03:46:04,VALID,1003.55,VALID,0,VALID,86.0843,VALID,0,VALID,26.1979,VALID,326,VALID,0.766797,
2009-01-18, 03:47:04,VALID,1003.54,VALID,0,VALID,86.1835,VALID,0,VALID,26.1784,VALID,354,VALID,0.753516,
2009-01-18, 03:48:04,VALID,1003.54,VALID,0,VALID,86.1682,VALID,0,VALID,26.157,VALID,344,VALID,0.659375,